Regional Weather Roundup
Issued by NWS Pendleton, OR

Home | Current Version | Previous Version | Text Only | Print | Product List | Glossary On
Versions: 1 2 3 4 5 6 7 8 9 10 11 12 13 14 15 16 17 18 19 20 21 22 23 24 25 26 27 28 29 30 31 32 33 34 35 36 37 38 39 40 41 42 43 44 45 46 47 48 49 50
988
ASUS46 KPDT 231125
RWRPDT
PENDLETON REGIONAL WEATHER ROUNDUP
NATIONAL WEATHER SERVICE PENDLETON OREGON
400 AM PDT SAT JUL 23 2016

NOTE: FAIR INDICATES FEW OR NO CLOUDS BELOW 12,000 FEET WITH NO
SIGNIFICANT WEATHER AND/OR OBSTRUCTIONS TO VISIBILITY.

# INDICATES UNOFFICIAL STATION AND DATA

WAZ520-231210-
EAST SLOPES OF WASHINGTON CASCADES

CITY            SKY/WX      TMP DP  RH  WIND    PRES   REMARKS
#CLE ELUM HS    N/A         56  48  74  W6      30.14S
#CLE ELUM 2NW   N/A         55  47  74  W6      N/A
#GLENWOOD       N/A         40  38  92  CALM    30.15R
#MANASTASH CYN  N/A         44  40  86  CALM    30.15S
#NELSON 3SW     N/A         54  46  74  CALM    30.32S
#NILE           N/A         55  45  69  CALM    29.41S
#RONALD 2NW     N/A         54  N/A N/A E1      30.25F
#TEANAWAY 4NE   N/A         53  48  83  CALM    N/A
#TROUT LAKE 1NE N/A         55  47  74  SW2     30.14S
#TROUT LAKE 1E  N/A         52  46  80  CALM    30.16S
$$

WAZ521-231210-
SIMCOE HIGHLANDS

CITY            SKY/WX      TMP DP  RH  WIND    PRES   REMARKS
#CENTERVILLE 1SWN/A         54  47  77  W7      30.11S
#GOLDENDALE 1NE N/A         48  38  68  CALM    N/A
#GOLDENDALE 4W  N/A         51  51  100 N1      30.21R
#GOODNOE HILLS  N/A         57  50  77  NW12    30.08S
#LYLE 6NE       N/A         56  50  80  SW7     30.13R
$$

WAZ026-231210-
KITTITAS VALLEY

CITY            SKY/WX      TMP DP  RH  WIND    PRES   REMARKS
ELLENSBURG AP   PTCLDY      58  47  67  NW15    30.16S
#ELLENSBURG CWU N/A         57  48  72  N8      30.06F
#ELLENSBURG 3NE N/A         56  49  77  NW7     30.15S
#ELLENSBURG     N/A         60  51  72  NW3     N/A
#ELLENSBURG 1E  N/A         58  N/A N/A CALM    N/A
#KITTITAS 4N    N/A         55  45  69  CALM    30.18R
#KITTITAS 3S    N/A         54  48  80  CALM    30.10S
#THORP 6N       N/A         54  47  77  N10     30.13R
$$

WAZ027-231210-
YAKIMA VALLEY

CITY            SKY/WX      TMP DP  RH  WIND    PRES   REMARKS
SUNNYSIDE AP    PTCLDY      48  46  93  CALM    30.15F
YAKIMA AIRPORT  PTCLDY      55  44  66  CALM    30.17R
YAKIMA-VAGABOND N/A         58  44  60  SW2     30.15S
#DONALD 2NE     N/A         62  30  30  N3      30.13F
#GRANDVIEW      N/A         54  47  77  CALM    30.14R
#MABTON         N/A         59  47  64  S2      30.14S
#NACHES 2SW     N/A         58  48  69  W5      30.18S
#TERRACE HTS    N/A         59  46  62  CALM    30.08R
#WEST VALLEY    N/A         54  44  69  CALM    30.11R
#W YAKIMA       N/A         59  47  64  W1      30.12R
#WHITE SWAN 5E  N/A         49  45  86  CALM    30.13R
#WILEY CITY 3W  N/A         49  39  68  CALM    30.14R
$$

WAZ028-231210-
LOWER COLUMBIA BASIN...WASHINGTON

CITY            SKY/WX      TMP DP  RH  WIND    PRES   REMARKS
PASCO           PTCLDY      60  51  72  CALM    30.15S
PROSSER AWOS    N/A         52  48  86  CALM    30.19R
RICHLAND AWOS   PTCLDY      59  51  75  SE3     30.15S
#BENTON CITY    N/A         54  48  80  CALM    30.03S
#CONNELL 5N     N/A         52  46  80  CALM    30.10S
#CONNELL 5NW    N/A         54  48  80  CALM    30.06S
#ELTOPIA 6NW    N/A         61  47  60  CALM    29.11S
#KAHLOTUS       N/A         60  46  60  W13     30.10S
#KENNEWICK 3S   N/A         59  51  75  N2      30.12S
#PATERSON       N/A         59  52  78  CALM    30.12S
#SAGEMOOR 2W    N/A         59  51  75  CALM    29.97S
#TOUCHET 2S     N/A         62  50  65  SW9     30.11S
#WEST PASCO     N/A         60  50  69  CALM    30.14S
$$

WAZ029-231210-
FOOTHILLS OF THE BLUES...WASHINGTON

CITY            SKY/WX      TMP DP  RH  WIND    PRES   REMARKS
WALLA WALLA AP  PTCLDY      60  48  64  S10     30.17F
#CLYDE 6NW      N/A         53  45  74  CALM    30.11S
#LOWDEN 2SE     N/A         54  49  83  E1      30.12S
#PLEASANT VIEW 1N/A         55  45  69  SW5     30.13S
#PRESCOTT       N/A         57  50  77  CALM    30.11F
#WHITMAN COLLEGEN/A         60  50  69  SE1     30.17F
#WAITSBURG 5S   N/A         57  48  72  S6      30.20F
#WAITSBURG 8N   N/A         55  28  35  S3      30.13S
#WALLA WALLA U  N/A         60  51  72  CALM    30.13F
#WHITMAN MISSIONN/A         55  50  83  CALM    30.14F
$$

WAZ030-231210-
BLUE MOUNTAINS...WASHINGTON

CITY            SKY/WX      TMP DP  RH  WIND    PRES   REMARKS
#DIXIE 5SE      N/A         53  46  77  S6      30.13F
$$

ORZ009-041-WAZ024-231210-
COLUMBIA RIVER GORGE

CITY            SKY/WX      TMP DP  RH  WIND    PRES   REMARKS
HOOD RIVER AP   CLOUDY      55  50  83  NW7     30.21S
THE DALLES AP   PTCLDY      62  50  65  NW7     30.18S
#ARLINGTON AIRPON/A         57  50  77  W3      30.15S
#LYLE           N/A         63  54  72  W12     30.19R
#MARYHILL 2W    N/A         61  52  72  W3      N/A
#MOSIER 1S      N/A         58  43  57  N3      30.18S
#MURDOCK        N/A         63  52  67  NW10    30.14R
#RUFUS DOT      N/A         65  52  63  W12     N/A
#SMITHVILLE     N/A         62  53  72  W8      30.18R

$$

ORZ510-231210-
NORTH CENTRAL OREGON

CITY            SKY/WX      TMP DP  RH  WIND    PRES   REMARKS
#ANTELOPE       N/A         44  40  86  NE1     30.01S
#CHENOWITH 1W   N/A         54  49  83  W17     N/A
#COW CYN RST AREN/A         53  N/A N/A S2      N/A
#DUFUR 9E       N/A         56  46  69  W2      30.20S
#GRASS VALLEY 1SN/A         48  44  86  S1      30.14F
#KENT DOT       N/A         49  42  77  N5      N/A
#SHANIKO 5WSW   N/A         50  38  63  N6      N/A
#SHANIKO 4NW    N/A         51  48  89  SW1     30.23F
#TYGH VALLEY 2NEN/A         50  44  80  CALM    30.15F
#WAPANITIA AIRPON/A         53  46  77  CALM    30.16S
#WASCO DOT      N/A         59  49  69  SW8     N/A
#WASCO 5NE      N/A         57  49  75  W10     30.13F
$$

ORZ511-231210-
CENTRAL OREGON

CITY            SKY/WX      TMP DP  RH  WIND    PRES   REMARKS
BEND AIRPORT    CLEAR       48  41  77  SW5     30.24F
MADRAS AIRPORT  PTCLDY      52  46  80  SE3     30.24F
PRINEVILLE AP   CLEAR       46  43  89  CALM    30.24F
REDMOND AIRPORT PTCLDY      45  39  79  S3      30.23F
#ASHWOOD SCHOOL N/A         48  42  80  CALM    30.17F
#BEND 1SW       N/A         44  39  82  CALM    N/A
#BEND-AWBREY    N/A         51  43  74  S3      30.25S
#CULVER         N/A         48  43  83  CALM    30.08F
#CULVER 8W      N/A         47  43  86  CALM    30.19S
#LAKE BILLY CHINN/A         49  N/A N/A CALM    30.25S
#MADRAS 4S      N/A         N/A N/A N/A W8      30.28F
#POWELL BUTTE   N/A         49  41  74  SE1     30.15F
#PRINEVILLE 3N  N/A         45  41  86  CALM    30.20S
#WARM SPRINGS   N/A         52  45  77  CALM    30.18F

$$


ORZ509-231210-
EAST SLOPES OF OREGON CASCADES

CITY            SKY/WX      TMP DP  RH  WIND    PRES   REMARKS
SISTERS AWOS    N/A         41  36  82  CALM    30.20F
#CAMP SHERMAN   N/A         45  40  82  CALM    30.21R
#LA PINE DOT    N/A         39  37  92  CALM    N/A
#LA PINE 4NW    N/A         34  30  85  CALM    30.19F
#LAVA BUTTE DOT N/A         41  38  89  CALM    N/A
#SISTERS AIRPOR N/A         40  38  92  CALM    30.17S
#SISTERS ODOT   N/A         39  N/A N/A CALM    N/A
#SISTERS 3N     N/A         41  33  73  CALM    30.20S
#SUNRIVER       N/A         40  36  85  CALM    30.15S
#SUTTLE LK DOT  N/A         47  45  93  CALM    N/A
#TUMALO 3W      N/A         49  41  74  SW2     30.01F
#WANOGA BUTTE D N/A         51  27  39  NE1     N/A

$$

ORZ044-231210-
LOWER COLUMBIA BASIN...OREGON

CITY            SKY/WX      TMP DP  RH  WIND    PRES   REMARKS
HERMISTON       PTCLDY      62  48  60  SW6     30.16S
#BOARDMAN 8SW   N/A         57  51  80  SW7     30.14S
#ECHO 8SW       N/A         60  47  62  SW5     30.16F
#I-84 EX 198 DOTN/A         60  49  67  E9      N/A
#UMATILLA       N/A         58  47  67  CALM    30.07F
$$

ORZ507-231210-
NORTHERN FOOTHILLS OF THE BLUES

CITY            SKY/WX      TMP DP  RH  WIND    PRES   REMARKS
PENDLETON AIRPT PTCLDY      55  46  72  S3      30.18S
#ADAMS 3WNW     N/A         51  45  80  CALM    30.12S
#ATHENA         N/A         52  46  80  CALM    30.15S
#CAYUSE         N/A         54  47  77  E3      30.12S
#HELIX SCHOOL   N/A         51  44  77  CALM    30.12S
#HELIX 3N       N/A         53  47  80  SW2     30.14F
#HOLDMAN 5SE    N/A         55  46  72  CALM    30.16F
#HOLDMAN 6E     N/A         56  47  72  N6      29.93F
#M-F GROVE ELEM N/A         59  46  62  CALM    30.15F
#M-FREEWATER 5SEN/A         55  48  77  CALM    30.17S
#PENDLETON DNTN N/A         56  42  59  CALM    30.19S
#PDT AQUATIC CTRN/A         55  38  53  CALM    30.03S
#PDT SUNRIDGE   N/A         50  45  83  CALM    30.19F
#PENDLETON 7NW  N/A         51  42  71  CALM    32.29S
#PILOT ROCK 1S  N/A         52  41  66  SE2     30.18F
#PILOT ROCK     N/A         52  41  66  CALM    30.19F
#TUTUILLA       N/A         48  44  86  CALM    30.15S
#UMAPINE 2E     N/A         61  51  70  W1      30.13F
#WESTON SCHOOL  N/A         54  45  71  NW1     30.03F

$$

ORZ508-231210-
SOUTHERN FOOTHILLS OF THE BLUES

CITY            SKY/WX      TMP DP  RH  WIND    PRES   REMARKS
LEXINGTON       PTCLDY      54  45  71  SE6     30.22F
#CONDON 5W      N/A         51  44  77  SW7     30.19F
#HEPPNER EOC    N/A         51  43  74  E2      30.07F
#HEPPNER 4NE    N/A         52  44  74  SW1     30.12F
#LEXINGTON 2SE  N/A         52  45  77  SE3     30.16S
#RUGGS 5NE      N/A         47  42  83  S1      30.40S
#RUGGS 2SW      N/A         50  43  77  SW6     30.14F

$$

ORZ502-503-231210-
BLUE MOUNTAINS

CITY            SKY/WX      TMP DP  RH  WIND    PRES   REMARKS
MEACHAM         CLEAR       40  36  85  CALM    30.23F
#BATTLE MTN DOT N/A         43  40  89  N2      N/A
#CUTSFORTH PARK N/A         40  37  89  CALM    30.01S
#GREENHORN 9SW  N/A         42  39  89  CALM    30.21F
#HARDMAN 10S    N/A         61  34  36  N5      30.22S
#HEPPNER 15SE   N/A         43  40  89  CALM    30.14F
#LADD CYN SMT   N/A         48  44  86  N2      N/A
#LADD CREEK ODOTN/A         48  44  86  SW2     N/A
#LONG CREEK HS  N/A         45  44  96  CALM    N/A
#N POWDER DOT   N/A         51  45  80  NE8     N/A
#PIKES PEAK     N/A         52  46  80  SW15    27.99S
#TOLLGATE       N/A         44  43  96  CALM    30.08S
#TROY SCHOOL    N/A         58  49  72  CALM    29.95R
#UKIAH          N/A         38  36  92  CALM    30.06R
#WESTON 4E      N/A         51  46  83  CALM    30.07F
$$

ORZ505-231210-
JOHN DAY BASIN

CITY            SKY/WX      TMP DP  RH  WIND    PRES   REMARKS
JOHN DAY        CLEAR       52  44  74  CALM    30.24S
#DAYVILLE SCHOOLN/A         54  42  64  CALM    30.17S
#MITCHELL       N/A         48  44  86  CALM    30.37F
#MITCHELL 8NW   N/A         54  40  59  CALM    30.29F
#MONUMENT HS    N/A         52  43  71  CALM    30.13S
#MT. VERNON 5SE N/A         51  43  74  CALM    30.19S
#SPRAY SCHOOL   N/A         51  N/A N/A CALM    N/A
$$

ORZ506-231210-
OCHOCO AND JOHN DAY HIGHLANDS

CITY            SKY/WX      TMP DP  RH  WIND    PRES   REMARKS
#BUCK CREEK DOT N/A         53  40  61  SW2     N/A
#HORSE RIDGE DO N/A         36  33  89  SW6     N/A
#KEYES SMT DOT  N/A         50  42  74  SW15    N/A
#PAULINA SCHOOL N/A         47  40  76  CALM    N/A
#PINE MTN OBS   N/A         48  31  51  NW6     N/A
#PRAIRIE CITY   N/A         44  39  82  CALM    30.39F
#SENECA         N/A         44  N/A N/A CALM    N/A
#SENECA 9NW     N/A         40  36  85  CALM    30.03F
$$

ORZ049-231210-
GRANDE RONDE VALLEY

CITY            SKY/WX      TMP DP  RH  WIND    PRES   REMARKS
LA GRANDE       CLEAR       55  37  51  NW9     30.19F
#COVE           N/A         49  46  89  E2      30.21F
#COVE SCHOOL    N/A         48  43  83  CALM    30.20F
#COVE 6NW       N/A         47  42  83  CALM    30.08F
#ELGIN 3N       N/A         49  42  77  CALM    30.16F
#ELGIN 1E       N/A         50  43  77  CALM    N/A
#ISLAND CITY 4N N/A         56  53  90  CALM    30.26S
#LADD CYN DOT   N/A         53  46  77  SE8     N/A
#UNION 1S       N/A         54  46  74  CALM    30.00S
$$

ORZ050-231210-
WALLOWA COUNTY

CITY            SKY/WX      TMP DP  RH  WIND    PRES   REMARKS
JOSEPH AIRPORT  CLEAR       43  37  79  CALM    N/A
#ENTERPRISE AP  N/A         49  29  46  CALM    30.13F
#ENTERPRISE HS  N/A         44  40  86  CALM    30.21F
#IMNAHA SCHOOL  N/A         56  45  66  N2      30.16S
#JOSEPH 3N      N/A         40  35  82  CALM    30.21F
#JOSEPH 3W      N/A         45  39  79  SW3     30.06F
#LOSTINE        N/A         45  40  82  CALM    29.91F
#LOSTINE 3SE    N/A         43  38  82  CALM    30.19F
#MT HOWARD 8000 N/A         42  32  67  CALM    30.34F
#PROMISE 1S     N/A         50  45  83  CALM    30.20S
#WALLOWA SCHOOL N/A         47  43  86  CALM    30.16S



$$



USA.gov is the U.S. government's official web portal to all federal, state and local government web resources and services.